308P/Lagerkvist-Carsenty (1998)

Japanese version
Home page
Updated on August 3, 2014

---------------------------------------------------------------------

* Profile

Designation 308P/1997 T3
Discovery Date October 5, 1997
Magnitude 18.9 mag (R)
Discoverer Claes-Ingvar Lagerkvist (Uppsala University Observatory)

* Orbital Elements

Epoch 1998 Mar. 8.0 TT = JDT 2450880.5
T 1998 Mar. 11.25072 TT                                 MPC
q   4.2401820            (2000.0)            P               Q
n   0.05707024     Peri.  334.20425     +0.79299846     -0.60455998
a   6.6813301      Node    63.19894     +0.57252856     +0.69731619
e   0.3653686      Incl.    4.83533     +0.20824142     +0.38504201
P  17.3
From 171 observations 1997 Oct. 5-2014 July 30, mean residual 0".6.

* Finding Charts

* 1997 Sept. 9 - 2000 Apr. 26

* Magnitudes Graph

        m1 = 10.0 + 5 log d + 10.0 log r

---------------------------------------------------------------------

The orbital elements are published on M.P.E.C. 2014-O65.
The charts are made with StellaNavigator Ver.2.0 for Windows (AstroArts / ASCII).
The magnitudes graphs are made with Comet for Windows.

---------------------------------------------------------------------

Copyright(C) Seiichi Yoshida (comet@aerith.net). All rights reserved.